FW2486 Weather Reports


Display with metric or nautical units.
time (UTC)temp
F
wind
direction
speed
MPH
gust
MPH
rain 1hr
in
rain 24hr
in
rain mn
in
humidity
%
barometer
mb
20260905010035 62 191 1.0 4.0 0.00 0.02 0.02 79 1017.6
20260905003107 63 195 2.0 6.0 0.00 0.02 0.02 80 1017.3
20260905001534 61 189 3.0 6.0 0.00 0.02 0.02 80 1017.4
20260905000032 61 197 3.0 7.0 0.00 0.02 0.02 81 1017.4
20260904234537 61 189 3.0 8.0 0.00 0.02 0.02 80 1017.5
20260904233035 61 200 2.0 6.0 0.00 0.02 0.02 79 1017.4
20260904231534 61 201 3.0 8.0 0.00 0.02 0.02 78 1017.4
20260904230035 62 220 3.0 7.0 0.00 0.02 0.02 78 1017.4
20260904224533 62 234 2.0 5.0 0.00 0.02 0.02 78 1017.3
20260904223142 62 197 1.0 5.0 0.00 0.02 0.02 78 1017.3
20260904221530 62 175 2.0 6.0 0.00 0.02 0.02 77 1017.2
20260904220030 62 202 3.0 9.0 0.00 0.02 0.02 79 1017.2
20260904214534 61 209 4.0 8.0 0.00 0.02 0.02 80 1017.1
20260904213036 61 206 4.0 10.0 0.00 0.02 0.02 78 1017.1
20260904211536 61 292 2.0 4.0 0.00 0.02 0.02 78 1017.0
20260904210034 61 328 3.0 5.0 0.00 0.02 0.02 76 1016.8
20260904204536 61 337 3.0 9.0 0.00 0.02 0.02 75 1016.8
20260904200036 65 337 5.0 11.0 0.00 0.02 0.02 77 1016.9
20260904194535 63 27 2.0 7.0 0.00 0.02 0.02 80 1017.1
20260904193032 62 89 1.0 3.0 0.00 0.02 0.02 82 1017.2
20260904190036 60 130 2.0 4.0 0.00 0.02 0.02 85 1017.4
20260904184535 59 95 2.0 5.0 0.00 0.02 0.02 85 1017.4
20260904181533 58 13 2.0 5.0 0.00 0.02 0.02 92 1017.3
20260904174530 55 46 0.0 0.0 0.00 0.02 0.02 95 1017.3
20260904173031 54 39 1.0 2.0 0.00 0.02 0.02 95 1017.3
20260904171535 54 90 0.0 2.0 0.00 0.02 0.02 96 1017.3
20260904170035 54 101 1.0 4.0 0.00 0.02 0.02 97 1017.3
20260904164532 53 344 0.0 3.0 0.00 0.02 0.02 98 1017.2
20260904163035 52 292 0.0 1.0 0.00 0.02 0.02 98 1017.2
20260904161607 51 292 0.0 1.0 0.00 0.02 0.02 99 1017.1
20260904160109 50 292 1.0 2.0 0.00 0.02 0.02 98 1017.1
20260904154534 50 334 2.0 4.0 0.00 0.03 0.02 98 1017.0
20260904151534 49 180 0.0 2.0 0.00 0.03 0.02 98 1016.7
20260904150029 49 129 0.0 3.0 0.00 0.03 0.02 98 1016.5
20260904143036 48 112 0.0 0.0 0.00 0.03 0.02 98 1016.4
20260904141536 48 126 0.0 2.0 0.00 0.03 0.02 98 1016.2
20260904140032 48 195 1.0 4.0 0.00 0.03 0.02 98 1016.1
20260904134535 48 112 0.0 0.0 0.01 0.03 0.02 98 1015.9
20260904133108 48 112 0.0 1.0 0.01 0.03 0.02 98 1015.8
20260904131535 48 138 0.0 2.0 0.01 0.03 0.02 98 1015.7
20260904130035 48 180 0.0 2.0 0.01 0.03 0.01 98 1015.6
20260904124544 48 187 0.0 3.0 0.00 0.02 0.01 98 1015.6
20260904123059 48 200 1.0 3.0 0.00 0.02 0.01 98 1015.5
20260904121609 48 157 0.0 1.0 0.00 0.02 0.01 98 1015.4
20260904120035 48 179 2.0 3.0 0.00 0.02 0.01 98 1015.3
20260904114536 48 202 0.0 2.0 0.01 0.02 0.01 98 1015.2
20260904113031 48 165 0.0 3.0 0.01 0.02 0.01 98 1015.1
20260904111535 48 157 0.0 1.0 0.01 0.02 0.01 98 1015.0
20260904110109 48 157 0.0 2.0 0.01 0.02 0.00 98 1014.9
20260904104532 48 157 0.0 2.0 0.00 0.01 0.00 98 1014.8
20260904103036 47 179 0.0 2.0 0.00 0.01 0.00 98 1014.7
20260904101645 0 0 0.0 0.0 0.00 0.01 0.00 100
20260904093106 47 166 1.0 3.0 0.00 0.01 0.00 97 1014.3
20260904091609 47 218 0.0 2.0 0.00 0.01 0.00 97 1014.3
20260904090034 47 225 0.0 4.0 0.00 0.01 0.00 97 1014.3
20260904084532 48 184 1.0 4.0 0.00 0.01 0.00 97 1014.2
20260904083036 48 180 1.0 4.0 0.00 0.01 0.00 97 1014.1
20260904081536 49 198 1.0 3.0 0.00 0.01 0.00 97 1014.2
20260904080038 48 167 2.0 4.0 0.00 0.01 0.00 97 1014.2
20260904073036 48 200 0.0 2.0 0.00 0.01 0.00 97 1014.1
20260904071535 48 180 0.0 3.0 0.00 0.01 0.00 97 1014.2
20260904070035 48 192 2.0 3.0 0.00 0.01 0.00 96 1014.1
20260904064535 47 195 0.0 3.0 0.00 0.01 0.01 96 1014.1
20260904063036 48 202 0.0 1.0 0.00 0.01 0.01 96 1014.1
20260904061605 48 202 0.0 0.0 0.00 0.01 0.01 96 1014.0
20260904060149 49 202 0.0 2.0 0.00 0.01 0.01 96 1014.0
20260904054537 49 202 0.0 2.0 0.00 0.01 0.01 96 1014.0
20260904053037 49 202 0.0 2.0 0.00 0.01 0.01 96 1014.0
20260904051607 50 202 1.0 2.0 0.00 0.01 0.01 96 1014.0
20260904050034 50 177 1.0 3.0 0.00 0.01 0.01 95 1014.0
20260904043035 51 174 2.0 3.0 0.00 0.10 0.01 95 1014.1
20260904041531 51 247 0.0 0.0 0.00 0.10 0.01 95 1014.1
20260904040034 50 247 0.0 1.0 0.00 0.10 0.01 94 1014.1
20260904034537 50 247 0.0 2.0 0.00 0.10 0.01 94 1014.0
20260904033107 51 247 0.0 1.0 0.00 0.10 0.01 93 1013.9
20260904031530 50 229 1.0 3.0 0.00 0.10 0.01 92 1013.6
20260904030141 51 202 0.0 1.0 0.00 0.10 0.01 91 1013.6
20260904024535 52 202 0.0 1.0 0.00 0.10 0.01 90 1013.5
20260904021534 55 235 1.0 4.0 0.00 0.11 0.01 88 1013.4
20260904020034 56 324 0.0 2.0 0.00 0.11 0.01 86 1013.2
20260904014534 56 8 1.0 2.0 0.00 0.11 0.01 85 1013.2
20260904013032 56 6 2.0 5.0 0.00 0.11 0.01 84 1013.2